Location: Taipo
(41.0000°S, 175.9500°E)
Time: 04:10:21
(UTC+00:00)

Cosmos 2278 Rocket - Pass Details

Date: 18 April 2024
Orbit: 839 x 846 km, 71.0° (Epoch: 22 May)

Event Time Altitude Azimuth Distance (km) Brightness Sun altitude
Exits shadow 16:43:25 27° 347° (NNW) 1,592 3.4 -24.6°
Maximum altitude 16:46:41 78° 68° (ENE) 874 2.3 -24.0°
Drops below altitude 10° 16:52:24 10° 154° (SSE) 2,489 5.0 -22.9°
Sets 16:54:52 0° 154° (SSE) 3,430 5.8 -22.5°
